Danbury, CT

1:46 AM EDT on October 18, 2017 (GMT -0400)
Danbury Municipal

Weather History for KDXR - April, 2014

Change the Weather History Date:

Tuesday, April 8, 2014

  Actual Average Record
Temperature  
Mean Temperature 54 °F -  
Max Temperature 64 °F 56 °F 91 °F (1991)
Min Temperature 45 °F 33 °F 18 °F (1982)
Degree Days  
Heating Degree Days 10    
Growing Degree Days 4 (Base 50)    
Moisture  
Dew Point 45 °F    
Average Humidity 85    
Maximum Humidity 100    
Minimum Humidity 46    
Precipitation  
Precipitation 0.32 in - - ()
Sea Level Pressure  
Sea Level Pressure 29.51 in    
Wind  
Wind Speed 8 mph (South)    
Max Wind Speed 21 mph    
Max Gust Speed 32 mph    
Visibility 6 miles    
Events Rain    
Averages and records for this station are not official NWS values.
T = Trace of Precipitation, MM = Missing Value Source: NWS Daily Summary

Daily Weather History Graph

Daily Weather History Graph

Search for Another Location

Airport or City:

Trip Planner

Search our weather history database for the weather conditions in past years. The results will help you decide how hot, cold, wet, or windy it might be!

Date:

Astronomy

Apr. 08, 2014 Rise Set
Actual Time 6:25 AM EDT 7:26 PM EDT
Civil Twilight 5:57 AM EDT 7:54 PM EDT
Nautical Twilight 5:23 AM EDT 8:28 PM EDT
Astronomical Twilight 4:48 AM EDT 9:03 PM EDT
Moon 1:13 PM EDT (4/8) 2:40 AM EDT (4/8)
Length of Visible Light 13h 57m
Length of Day
13h 01m
Waxing Gibbous, 62% of the Moon is Illuminated
Apr 8
Waxing Gibbous
Apr 15
Full
Apr 22
Last Quarter
Apr 29
New
May 6
First Quarter

Hourly Weather History & Observations

Time (EDT) Temp. Windchill Dew Point Humidity Pressure Visibility Wind Dir Wind Speed Gust Speed Precip Events Conditions
12:13 AM 48.0 °F - 46.0 °F 93% 29.74 in 4.0 mi East 13.8 mph 21.9 mph 0.00 in Rain Light Rain
12:24 AM 48.0 °F - 46.0 °F 93% 29.73 in 2.0 mi ESE 13.8 mph 21.9 mph 0.00 in Rain Light Rain
12:53 AM 46.9 °F - 46.0 °F 97% 29.69 in 2.5 mi East 9.2 mph 17.3 mph 0.01 in Rain Light Rain
1:06 AM 46.9 °F - 46.0 °F 97% 29.68 in 3.0 mi ESE 10.4 mph - 0.00 in   Overcast
1:53 AM 46.9 °F - 46.0 °F 97% 29.64 in 3.0 mi East 9.2 mph - 0.00 in   Overcast
2:08 AM 46.9 °F - 46.0 °F 97% 29.63 in 2.5 mi East 5.8 mph - N/A   Overcast
2:46 AM 46.9 °F - 46.0 °F 97% 29.60 in 3.0 mi Calm Calm - 0.00 in Rain Light Rain
2:53 AM 46.9 °F - 46.0 °F 97% 29.61 in 2.0 mi Calm Calm - 0.03 in Rain Rain
3:06 AM 46.9 °F - 46.0 °F 97% 29.59 in 5.0 mi East 4.6 mph - 0.00 in Rain Light Rain
3:53 AM 46.9 °F - 46.0 °F 97% 29.57 in 7.0 mi Calm Calm - 0.05 in Rain Light Rain
4:30 AM 46.0 °F 44.8 °F 46.0 °F 100% 29.54 in 2.0 mi SE 3.5 mph - 0.04 in Rain Rain
4:35 AM 46.0 °F 43.9 °F 46.0 °F 100% 29.54 in 1.8 mi SE 4.6 mph - 0.05 in Rain Light Rain
4:45 AM 46.0 °F 42.5 °F 46.0 °F 100% 29.54 in 2.5 mi SSE 6.9 mph - 0.06 in Rain Light Rain
4:53 AM 46.0 °F 43.1 °F 46.0 °F 100% 29.53 in 2.5 mi SE 5.8 mph - 0.07 in Rain Light Rain
5:06 AM 46.0 °F 44.8 °F 46.0 °F 100% 29.52 in 3.0 mi SE 3.5 mph - 0.00 in Rain Light Rain
5:53 AM 46.9 °F - 46.0 °F 97% 29.50 in 4.0 mi SE 5.8 mph - 0.07 in Rain Rain
6:04 AM 46.9 °F - 46.9 °F 100% 29.50 in 9.0 mi SE 3.5 mph - 0.00 in Rain Light Rain
6:53 AM 48.0 °F - 46.9 °F 96% 29.52 in 7.0 mi SSE 3.5 mph - 0.01 in Rain Light Rain
7:53 AM 48.0 °F - 48.0 °F 100% 29.47 in 5.0 mi Calm Calm - 0.05 in   Overcast
8:30 AM 48.9 °F - 48.0 °F 97% 29.45 in 2.0 mi Calm Calm - 0.00 in   Overcast
8:53 AM 48.9 °F - 48.9 °F 100% 29.45 in 1.5 mi Calm Calm - 0.00 in   Overcast
9:15 AM 48.9 °F - 48.9 °F 100% 29.45 in 1.0 mi Calm Calm - 0.01 in Rain Light Rain
9:45 AM 50.0 °F - 48.9 °F 96% 29.45 in 1.0 mi Calm Calm - 0.02 in Rain Light Rain
9:53 AM 50.0 °F - 48.9 °F 96% 29.45 in 0.8 mi Calm Calm - 0.02 in Rain Light Rain
10:04 AM 50.0 °F - 50.0 °F 100% 29.44 in 1.0 mi Calm Calm - 0.01 in Rain Light Rain
10:14 AM 50.0 °F - 50.0 °F 100% 29.44 in 1.5 mi SSE 3.5 mph - 0.01 in   Overcast
10:23 AM 50.0 °F - 50.0 °F 100% 29.44 in 3.0 mi SE 5.8 mph - 0.01 in   Overcast
10:53 AM 52.0 °F - 51.1 °F 97% 29.43 in 10.0 mi Calm Calm - 0.01 in   Overcast
11:40 AM 55.9 °F - 53.1 °F 90% 29.42 in 10.0 mi SW 10.4 mph 17.3 mph N/A   Mostly Cloudy
11:53 AM 57.0 °F - 54.0 °F 89% 29.41 in 10.0 mi SSW 9.2 mph - N/A   Scattered Clouds
12:00 PM 57.0 °F - 54.0 °F 89% 29.41 in 10.0 mi SSW 11.5 mph - N/A   Overcast
12:53 PM 60.1 °F - 53.1 °F 78% 29.39 in 10.0 mi SW 13.8 mph 20.7 mph N/A   Mostly Cloudy
1:53 PM 62.1 °F - 50.0 °F 65% 29.38 in 10.0 mi SW 12.7 mph - N/A   Mostly Cloudy
2:00 PM 63.0 °F - 50.0 °F 63% 29.38 in 10.0 mi WSW 13.8 mph 21.9 mph N/A   Scattered Clouds
2:53 PM 63.0 °F - 44.1 °F 50% 29.37 in 10.0 mi WSW 18.4 mph 32.2 mph N/A   Scattered Clouds
3:53 PM 62.1 °F - 41.0 °F 46% 29.39 in 10.0 mi West 20.7 mph 27.6 mph N/A   Mostly Cloudy
4:53 PM 59.0 °F - 37.9 °F 46% 29.42 in 10.0 mi West 18.4 mph 31.1 mph N/A   Overcast
5:53 PM 57.9 °F - 37.9 °F 47% 29.46 in 10.0 mi West 13.8 mph 23.0 mph N/A   Overcast
6:53 PM 54.0 °F - 37.0 °F 53% 29.50 in 10.0 mi West 11.5 mph 20.7 mph N/A   Mostly Cloudy
7:53 PM 52.0 °F - 32.0 °F 47% 29.54 in 10.0 mi WNW 15.0 mph 27.6 mph N/A   Clear
8:53 PM 50.0 °F - 32.0 °F 50% 29.58 in 10.0 mi WNW 10.4 mph 19.6 mph N/A   Partly Cloudy
9:53 PM 48.0 °F - 32.0 °F 54% 29.61 in 10.0 mi WNW 9.2 mph 17.3 mph N/A   Clear
10:53 PM 46.0 °F 41.9 °F 33.1 °F 61% 29.61 in 10.0 mi WNW 8.1 mph - N/A   Clear
11:53 PM 45.0 °F 41.8 °F 33.1 °F 63% 29.61 in 10.0 mi WNW 5.8 mph - N/A   Clear